GMFF

Fes-Saiss Airport

Airport
ICAO code
GMFF
IATA Code
FEZ
Summary
ICAO Region
AFI
ICAO Territory
Location

Oulad Tayeb, Fes-Meknes region

Serving
Fez
Elevation
1900 ft
Coordinates
33° 55' 38" N , 4° 58' 41" W
KCC
Metar
GMFF 200700Z 31003KT 250V320 CAVOK 28/12 Q1016 NOSIG

International airport serving Fez, the capital city of the Fès-Boulemane region in Morocco.

Climatology

Warm mediterranean climate (Köppen climate classification Csa)

Runways

Designator Length Width Surface Rops
9/27 3200 45 ASP Yes/Yes

Airport map

Aerial View

Airport accidents

SKYbrary Partners:

Safety knowledge contributed by: